RYR64FM LEMD-GCLP

Flight info

Callsign RYR64FM
Flight time 2h 41m
Altitude 37000
Route VTB DCT INPAN DCT CRISA DCT HIJ DCT SVL DCT CLANA DCT KORNO UN857 TERTO
Aircraft B38M/M-SDE1FGHILORVWXY/HB1

Departure

Time 2026-05-05 11:41
Airport Adolfo Suárez Madrid–Barajas Airport (LEMD)

Arrival

Time 2026-05-05 14:22
Airport Gran Canaria Airport (GCLP)
Time Latitude Longitude Altitude Speed Heading
2026-05-05 11:26 40.48929 -3.58958 2025 ft 0 kts 269°
2026-05-05 11:33 40.48929 -3.58931 2032 ft 4 kts 269°
2026-05-05 11:33 40.48929 -3.58896 2025 ft 4 kts 269°
2026-05-05 11:33 40.48930 -3.58860 2027 ft 4 kts 269°
2026-05-05 11:34 40.48930 -3.58832 2025 ft 4 kts 257°
2026-05-05 11:34 40.48943 -3.58812 2039 ft 4 kts 188°
2026-05-05 11:34 40.48967 -3.58812 2025 ft 3 kts 180°
2026-05-05 11:34 40.48971 -3.58812 2025 ft 1 kts 180°
2026-05-05 11:36 40.48963 -3.58811 2028 ft 4 kts 180°
2026-05-05 11:36 40.48904 -3.58811 2025 ft 13 kts 180°
2026-05-05 11:36 40.48810 -3.58810 2025 ft 9 kts 178°
2026-05-05 11:37 40.48751 -3.58810 2038 ft 9 kts 181°
2026-05-05 11:37 40.48686 -3.58811 2034 ft 10 kts 178°
2026-05-05 11:37 40.48612 -3.58808 2029 ft 12 kts 179°
2026-05-05 11:37 40.48515 -3.58769 2025 ft 19 kts 117°
2026-05-05 11:38 40.48510 -3.58570 2031 ft 24 kts 89°
2026-05-05 11:38 40.48511 -3.58328 2015 ft 29 kts 89°
2026-05-05 11:38 40.48512 -3.58078 2006 ft 21 kts 89°
2026-05-05 11:38 40.48504 -3.57868 1995 ft 22 kts 118°
2026-05-05 11:39 40.48481 -3.57749 1995 ft 12 kts 101°
2026-05-05 11:39 40.48454 -3.57646 1997 ft 12 kts 110°
2026-05-05 11:39 40.48421 -3.57537 1999 ft 10 kts 124°
2026-05-05 11:39 40.48383 -3.57491 2001 ft 0 kts 143°
2026-05-05 11:40 40.48288 -3.57395 2003 ft 49 kts 141°
2026-05-05 11:40 40.47843 -3.56943 1999 ft 112 kts 142°
2026-05-05 11:40 40.47080 -3.56168 1978 ft 164 kts 142°
2026-05-05 11:40 40.46096 -3.55174 2253 ft 182 kts 147°
2026-05-05 11:41 40.45042 -3.54226 2930 ft 183 kts 148°
2026-05-05 11:41 40.43954 -3.53207 3370 ft 205 kts 144°
2026-05-05 11:41 40.42849 -3.52046 3995 ft 211 kts 143°
2026-05-05 11:41 40.41617 -3.50761 4309 ft 235 kts 144°
2026-05-05 11:42 40.40289 -3.49389 4893 ft 247 kts 144°
2026-05-05 11:42 40.38933 -3.47996 5740 ft 249 kts 145°
2026-05-05 11:42 40.37554 -3.46586 6515 ft 253 kts 145°
2026-05-05 11:42 40.36163 -3.45168 7332 ft 253 kts 144°
2026-05-05 11:43 40.34767 -3.43746 8119 ft 256 kts 144°
2026-05-05 11:43 40.33356 -3.42312 8929 ft 258 kts 146°
2026-05-05 11:43 40.31930 -3.40861 9724 ft 260 kts 145°
2026-05-05 11:43 40.30490 -3.39397 10441 ft 264 kts 146°
2026-05-05 11:44 40.28846 -3.38287 10912 ft 271 kts 172°
2026-05-05 11:44 40.26970 -3.38345 11420 ft 273 kts 200°
2026-05-05 11:44 40.25197 -3.39277 12063 ft 278 kts 206°
2026-05-05 11:44 40.23413 -3.40281 12822 ft 280 kts 206°
2026-05-05 11:45 40.21615 -3.41311 13566 ft 284 kts 207°
2026-05-05 11:45 40.19771 -3.42307 14188 ft 294 kts 199°
2026-05-05 11:45 40.17656 -3.42641 14457 ft 318 kts 187°
2026-05-05 11:45 40.15416 -3.42846 14665 ft 337 kts 188°
2026-05-05 11:46 40.13013 -3.43079 14841 ft 356 kts 188°
2026-05-05 11:46 40.10450 -3.43324 15072 ft 372 kts 188°
2026-05-05 11:46 40.07871 -3.43571 15506 ft 379 kts 188°
2026-05-05 11:46 40.05233 -3.43823 16135 ft 381 kts 188°
2026-05-05 11:47 40.02538 -3.44080 16757 ft 384 kts 188°
2026-05-05 11:47 39.99900 -3.44331 17357 ft 386 kts 189°
2026-05-05 11:47 39.97212 -3.44587 17915 ft 389 kts 189°
2026-05-05 11:47 39.94475 -3.44848 18549 ft 389 kts 190°
2026-05-05 11:48 39.89059 -3.45363 19575 ft 392 kts 191°
2026-05-05 11:48 39.86332 -3.45622 20079 ft 393 kts 191°
2026-05-05 11:48 39.83595 -3.45881 20580 ft 395 kts 191°
2026-05-05 11:49 39.80846 -3.46142 21077 ft 397 kts 191°
2026-05-05 11:49 39.78087 -3.46405 21567 ft 398 kts 192°
2026-05-05 11:49 39.75450 -3.47105 22027 ft 387 kts 207°
2026-05-05 11:49 39.73097 -3.48764 22479 ft 376 kts 223°
2026-05-05 11:50 39.71253 -3.51124 22893 ft 372 kts 235°
2026-05-05 11:50 39.69894 -3.53958 23297 ft 370 kts 246°
2026-05-05 11:50 39.68891 -3.56992 23707 ft 372 kts 248°
2026-05-05 11:50 39.67555 -3.59880 24094 ft 378 kts 233°
2026-05-05 11:51 39.65770 -3.62396 24521 ft 380 kts 231°
2026-05-05 11:51 39.63943 -3.64902 24871 ft 383 kts 231°
2026-05-05 11:51 39.62090 -3.67390 25286 ft 385 kts 230°
2026-05-05 11:51 39.60214 -3.69879 25656 ft 387 kts 230°
2026-05-05 11:52 39.58318 -3.72373 26040 ft 389 kts 230°
2026-05-05 11:52 39.56411 -3.74873 26410 ft 391 kts 230°
2026-05-05 11:52 39.54492 -3.77384 26760 ft 393 kts 230°
2026-05-05 11:52 39.52563 -3.79906 27126 ft 395 kts 230°
2026-05-05 11:53 39.50624 -3.82439 27428 ft 397 kts 231°
2026-05-05 11:53 39.48673 -3.84984 27721 ft 400 kts 231°
2026-05-05 11:53 39.46706 -3.87549 28030 ft 402 kts 231°
2026-05-05 11:53 39.44735 -3.90115 28432 ft 402 kts 231°
2026-05-05 11:54 39.42767 -3.92676 28910 ft 401 kts 231°
2026-05-05 11:54 39.40805 -3.95229 29376 ft 399 kts 231°
2026-05-05 11:54 39.38853 -3.97764 29910 ft 397 kts 231°
2026-05-05 11:54 39.36913 -4.00283 30358 ft 395 kts 231°
2026-05-05 11:55 39.34974 -4.02798 30702 ft 395 kts 231°
2026-05-05 11:55 39.33035 -4.05311 31028 ft 395 kts 231°
2026-05-05 11:55 39.31096 -4.07822 31322 ft 396 kts 231°
2026-05-05 11:55 39.29150 -4.10340 31639 ft 396 kts 231°
2026-05-05 11:56 39.27837 -4.12038 31838 ft 396 kts 231°
2026-05-05 11:56 39.25261 -4.15365 32276 ft 395 kts 231°
2026-05-05 11:56 39.23317 -4.17874 32598 ft 396 kts 231°
2026-05-05 11:56 39.21370 -4.20385 32918 ft 396 kts 231°
2026-05-05 11:57 39.19421 -4.22897 33221 ft 396 kts 231°
2026-05-05 11:57 39.17472 -4.25406 33535 ft 396 kts 231°
2026-05-05 11:57 39.15520 -4.27917 33836 ft 397 kts 231°
2026-05-05 11:57 39.13567 -4.30427 34117 ft 397 kts 231°
2026-05-05 11:58 39.12272 -4.32090 34284 ft 397 kts 231°
2026-05-05 11:58 39.10311 -4.34606 34511 ft 398 kts 230°
2026-05-05 11:58 39.08350 -4.37122 34808 ft 397 kts 230°
2026-05-05 11:58 39.06392 -4.39630 35088 ft 397 kts 230°
2026-05-05 11:59 39.04435 -4.42136 35325 ft 398 kts 230°
2026-05-05 11:59 39.02476 -4.44642 35592 ft 395 kts 230°
2026-05-05 11:59 39.00536 -4.47122 35961 ft 392 kts 230°
2026-05-05 11:59 38.98600 -4.49595 36194 ft 393 kts 230°
2026-05-05 12:00 38.96663 -4.52069 36406 ft 393 kts 230°
2026-05-05 12:00 38.94722 -4.54544 36571 ft 394 kts 230°
2026-05-05 12:00 38.92773 -4.57024 36777 ft 394 kts 230°
2026-05-05 12:00 38.90823 -4.59505 36947 ft 395 kts 230°
2026-05-05 12:01 38.86900 -4.64490 37000 ft 397 kts 230°
2026-05-05 12:01 38.82979 -4.69465 37007 ft 397 kts 230°
2026-05-05 12:02 38.79054 -4.74437 36983 ft 397 kts 230°
2026-05-05 12:02 38.75133 -4.79395 36998 ft 396 kts 230°
2026-05-05 12:03 38.71211 -4.84346 37009 ft 396 kts 230°
2026-05-05 12:03 38.67289 -4.89291 37015 ft 396 kts 230°
2026-05-05 12:04 38.63362 -4.94232 37009 ft 396 kts 230°
2026-05-05 12:04 38.59425 -4.99179 37009 ft 397 kts 230°
2026-05-05 12:05 38.55477 -5.04130 37009 ft 397 kts 230°
2026-05-05 12:05 38.51502 -5.09031 36995 ft 400 kts 224°
2026-05-05 12:06 38.49095 -5.10880 37022 ft 408 kts 213°
2026-05-05 12:06 38.46559 -5.12519 36988 ft 410 kts 214°
2026-05-05 12:06 38.41462 -5.15773 37019 ft 411 kts 213°
2026-05-05 12:07 38.36329 -5.18977 37019 ft 411 kts 213°
2026-05-05 12:07 38.31192 -5.22163 37016 ft 411 kts 213°
2026-05-05 12:08 38.26056 -5.25344 37014 ft 411 kts 213°
2026-05-05 12:08 38.20912 -5.28523 37026 ft 411 kts 213°
2026-05-05 12:09 38.15766 -5.31699 37010 ft 410 kts 213°
2026-05-05 12:09 38.10622 -5.34868 37022 ft 412 kts 213°
2026-05-05 12:10 38.05463 -5.38043 36989 ft 412 kts 213°
2026-05-05 12:10 38.00307 -5.41209 37028 ft 412 kts 213°
2026-05-05 12:11 37.95156 -5.44368 37017 ft 411 kts 213°
2026-05-05 12:11 37.90002 -5.47524 37004 ft 411 kts 213°
2026-05-05 12:12 37.84850 -5.50673 37028 ft 412 kts 213°
2026-05-05 12:12 37.79693 -5.53822 37011 ft 411 kts 212°
2026-05-05 12:13 37.74536 -5.56964 37015 ft 411 kts 212°
2026-05-05 12:13 37.69383 -5.60100 37021 ft 412 kts 212°
2026-05-05 12:14 37.64215 -5.63240 37020 ft 412 kts 212°
2026-05-05 12:14 37.59051 -5.66373 37019 ft 412 kts 212°
2026-05-05 12:15 37.53895 -5.69495 37014 ft 410 kts 212°
2026-05-05 12:15 37.48748 -5.72608 37015 ft 411 kts 212°
2026-05-05 12:16 37.43597 -5.75753 37018 ft 409 kts 216°
2026-05-05 12:16 37.39213 -5.80094 36996 ft 402 kts 224°
2026-05-05 12:17 37.34924 -5.84591 37022 ft 402 kts 225°
2026-05-05 12:17 37.30653 -5.89120 37011 ft 402 kts 225°
2026-05-05 12:18 37.26386 -5.93651 37028 ft 402 kts 225°
2026-05-05 12:18 37.22116 -5.98178 37031 ft 402 kts 225°
2026-05-05 12:19 37.17872 -6.02671 37030 ft 402 kts 225°
2026-05-05 12:19 37.13600 -6.07187 37034 ft 402 kts 225°
2026-05-05 12:20 37.09325 -6.11699 37035 ft 403 kts 225°
2026-05-05 12:20 37.05028 -6.16228 37029 ft 403 kts 224°
2026-05-05 12:21 37.00701 -6.20780 37040 ft 404 kts 224°
2026-05-05 12:21 36.96404 -6.25295 37047 ft 404 kts 224°
2026-05-05 12:22 36.92132 -6.29777 37046 ft 403 kts 224°
2026-05-05 12:22 36.87802 -6.34313 37047 ft 404 kts 224°
2026-05-05 12:23 36.83496 -6.38816 37050 ft 404 kts 224°
2026-05-05 12:23 36.79190 -6.43312 37038 ft 404 kts 224°
2026-05-05 12:24 36.74876 -6.47810 37044 ft 404 kts 224°
2026-05-05 12:24 36.70549 -6.52315 37044 ft 406 kts 224°
2026-05-05 12:25 36.66217 -6.56818 37075 ft 406 kts 224°
2026-05-05 12:25 36.61881 -6.61319 37081 ft 406 kts 224°
2026-05-05 12:26 36.57543 -6.65815 37069 ft 406 kts 224°
2026-05-05 12:26 36.53207 -6.70304 37076 ft 406 kts 224°
2026-05-05 12:27 36.48858 -6.74794 37076 ft 406 kts 224°
2026-05-05 12:27 36.44509 -6.79279 37076 ft 406 kts 224°
2026-05-05 12:28 36.40158 -6.83760 37077 ft 406 kts 223°
2026-05-05 12:28 36.35799 -6.88241 37079 ft 408 kts 223°
2026-05-05 12:29 36.31400 -6.92758 37081 ft 413 kts 223°
2026-05-05 12:29 36.26956 -6.97314 37075 ft 416 kts 223°
2026-05-05 12:30 36.22493 -7.01881 37087 ft 416 kts 223°
2026-05-05 12:30 36.18031 -7.06442 37089 ft 416 kts 223°
2026-05-05 12:31 36.13566 -7.10998 37087 ft 416 kts 223°
2026-05-05 12:31 36.09101 -7.15547 37090 ft 416 kts 223°
2026-05-05 12:32 36.04631 -7.20094 37087 ft 416 kts 223°
2026-05-05 12:32 36.00154 -7.24642 37090 ft 418 kts 223°
2026-05-05 12:33 35.95684 -7.29176 37087 ft 419 kts 223°
2026-05-05 12:33 35.91179 -7.33738 37101 ft 419 kts 223°
2026-05-05 12:34 35.86646 -7.38323 37093 ft 419 kts 223°
2026-05-05 12:34 35.82161 -7.42832 37098 ft 419 kts 222°
2026-05-05 12:35 35.77634 -7.47354 37100 ft 419 kts 222°
2026-05-05 12:35 35.73106 -7.51872 37096 ft 419 kts 222°
2026-05-05 12:36 35.68578 -7.56384 37101 ft 419 kts 222°
2026-05-05 12:36 35.64045 -7.60893 37108 ft 419 kts 222°
2026-05-05 12:37 35.59503 -7.65406 37105 ft 420 kts 222°
2026-05-05 12:37 35.54956 -7.69916 37102 ft 420 kts 222°
2026-05-05 12:38 35.50408 -7.74420 37074 ft 420 kts 222°
2026-05-05 12:38 35.45850 -7.78929 37089 ft 421 kts 222°
2026-05-05 12:39 35.41291 -7.83443 37107 ft 421 kts 222°
2026-05-05 12:39 35.36759 -7.87984 37101 ft 421 kts 222°
2026-05-05 12:40 35.32989 -7.91752 37097 ft 421 kts 222°
2026-05-05 12:40 35.28452 -7.96280 37100 ft 421 kts 222°
2026-05-05 12:41 35.23907 -8.00808 37108 ft 421 kts 222°
2026-05-05 12:41 35.19365 -8.05327 37107 ft 421 kts 222°
2026-05-05 12:42 35.14823 -8.09839 37105 ft 421 kts 222°
2026-05-05 12:42 35.10282 -8.14343 37105 ft 421 kts 222°
2026-05-05 12:43 35.05735 -8.18847 37105 ft 421 kts 222°
2026-05-05 12:43 35.01190 -8.23343 37105 ft 421 kts 222°
2026-05-05 12:44 34.96641 -8.27835 37105 ft 421 kts 222°
2026-05-05 12:44 34.92091 -8.32322 37100 ft 420 kts 222°
2026-05-05 12:45 34.87540 -8.36803 37107 ft 421 kts 222°
2026-05-05 12:45 34.82977 -8.41290 37108 ft 422 kts 222°
2026-05-05 12:46 34.78414 -8.45770 37107 ft 421 kts 222°
2026-05-05 12:46 34.73847 -8.50247 37108 ft 422 kts 222°
2026-05-05 12:47 34.69282 -8.54717 37109 ft 422 kts 222°
2026-05-05 12:47 34.64708 -8.59187 37109 ft 422 kts 222°
2026-05-05 12:48 34.60126 -8.63660 37105 ft 422 kts 221°
2026-05-05 12:48 34.55545 -8.68124 37108 ft 422 kts 221°
2026-05-05 12:49 34.50961 -8.72586 37108 ft 423 kts 221°
2026-05-05 12:49 34.46364 -8.77056 37109 ft 424 kts 221°
2026-05-05 12:50 34.41749 -8.81505 37108 ft 424 kts 221°
2026-05-05 12:50 34.37129 -8.85949 37104 ft 424 kts 221°
2026-05-05 12:51 34.32511 -8.90386 37107 ft 424 kts 221°
2026-05-05 12:51 34.27894 -8.94815 37107 ft 424 kts 221°
2026-05-05 12:52 34.23273 -8.99242 37103 ft 424 kts 221°
2026-05-05 12:52 34.18650 -9.03665 37102 ft 424 kts 221°
2026-05-05 12:53 34.14025 -9.08082 37103 ft 424 kts 221°
2026-05-05 12:53 34.09406 -9.12488 37109 ft 424 kts 221°
2026-05-05 12:54 34.02467 -9.19095 37102 ft 424 kts 221°
2026-05-05 12:55 33.97839 -9.23493 37102 ft 424 kts 221°
2026-05-05 12:55 33.93212 -9.27885 37102 ft 424 kts 221°
2026-05-05 12:56 33.88579 -9.32275 37104 ft 424 kts 221°
2026-05-05 12:56 33.83952 -9.36654 37099 ft 422 kts 221°
2026-05-05 12:57 33.79359 -9.40995 37101 ft 419 kts 221°
2026-05-05 12:57 33.74767 -9.45328 37102 ft 420 kts 221°
2026-05-05 12:58 33.70172 -9.49658 37106 ft 420 kts 221°
2026-05-05 12:58 33.65566 -9.53993 37103 ft 420 kts 221°
2026-05-05 12:59 33.60963 -9.58318 37103 ft 420 kts 221°
2026-05-05 12:59 33.56361 -9.62638 37096 ft 418 kts 222°
2026-05-05 13:00 33.49542 -9.69026 37102 ft 414 kts 222°
2026-05-05 13:01 33.40463 -9.77511 37097 ft 414 kts 221°
2026-05-05 13:01 33.35951 -9.81719 37097 ft 414 kts 221°
2026-05-05 13:02 33.31402 -9.85956 37100 ft 415 kts 221°
2026-05-05 13:02 33.26851 -9.90189 37099 ft 410 kts 222°
2026-05-05 13:03 33.22378 -9.94344 37098 ft 407 kts 222°
2026-05-05 13:03 33.17909 -9.98490 37098 ft 407 kts 222°
2026-05-05 13:04 33.13437 -10.02633 37104 ft 407 kts 222°
2026-05-05 13:04 33.08966 -10.06772 37097 ft 407 kts 222°
2026-05-05 13:05 33.04491 -10.10907 37095 ft 407 kts 222°
2026-05-05 13:05 33.00012 -10.15035 37094 ft 407 kts 222°
2026-05-05 13:06 32.95530 -10.19158 37098 ft 407 kts 222°
2026-05-05 13:06 32.91042 -10.23283 37093 ft 409 kts 222°
2026-05-05 13:07 32.86541 -10.27414 37098 ft 409 kts 222°
2026-05-05 13:07 32.82035 -10.31544 37091 ft 409 kts 222°
2026-05-05 13:08 32.77528 -10.35670 37091 ft 409 kts 222°
2026-05-05 13:08 32.73021 -10.39790 37091 ft 409 kts 222°
2026-05-05 13:09 32.68547 -10.43875 37093 ft 401 kts 223°
2026-05-05 13:09 32.64128 -10.47903 37095 ft 401 kts 223°
2026-05-05 13:10 32.59708 -10.51929 37091 ft 401 kts 222°
2026-05-05 13:10 32.55282 -10.55954 37092 ft 401 kts 222°
2026-05-05 13:11 32.50851 -10.59979 37097 ft 403 kts 222°
2026-05-05 13:11 32.46400 -10.64017 37091 ft 403 kts 222°
2026-05-05 13:12 32.41953 -10.68046 37080 ft 400 kts 223°
2026-05-05 13:12 32.37569 -10.72013 37082 ft 395 kts 223°
2026-05-05 13:13 32.33194 -10.75967 37092 ft 396 kts 223°
2026-05-05 13:13 32.28821 -10.79914 37087 ft 396 kts 223°
2026-05-05 13:14 32.24472 -10.83834 37085 ft 396 kts 223°
2026-05-05 13:14 32.20092 -10.87778 37083 ft 396 kts 223°
2026-05-05 13:15 32.15713 -10.91716 37087 ft 396 kts 223°
2026-05-05 13:15 32.11348 -10.95636 37090 ft 392 kts 223°
2026-05-05 13:16 32.07008 -10.99529 37090 ft 392 kts 223°
2026-05-05 13:16 32.02663 -11.03422 37087 ft 392 kts 223°
2026-05-05 13:17 31.98316 -11.07312 37092 ft 392 kts 223°
2026-05-05 13:17 31.93963 -11.11203 37085 ft 392 kts 223°
2026-05-05 13:18 31.89613 -11.15085 37082 ft 392 kts 223°
2026-05-05 13:18 31.85264 -11.18964 37087 ft 392 kts 223°
2026-05-05 13:19 31.80961 -11.22797 37081 ft 385 kts 223°
2026-05-05 13:19 31.76698 -11.26590 37084 ft 384 kts 223°
2026-05-05 13:20 31.72439 -11.30389 37079 ft 384 kts 223°
2026-05-05 13:20 31.68174 -11.34192 37085 ft 386 kts 223°
2026-05-05 13:21 31.63887 -11.38010 37080 ft 387 kts 223°
2026-05-05 13:21 31.59599 -11.41825 37080 ft 387 kts 223°
2026-05-05 13:22 31.55310 -11.45637 37041 ft 386 kts 224°
2026-05-05 13:22 31.51068 -11.49402 37075 ft 380 kts 224°
2026-05-05 13:23 31.46853 -11.53138 37076 ft 380 kts 224°
2026-05-05 13:23 31.42637 -11.56871 37070 ft 380 kts 224°
2026-05-05 13:24 31.38420 -11.60601 37074 ft 380 kts 224°
2026-05-05 13:24 31.34910 -11.63702 37078 ft 380 kts 224°
2026-05-05 13:25 31.30687 -11.67430 37073 ft 380 kts 224°
2026-05-05 13:25 31.26465 -11.71152 37065 ft 380 kts 224°
2026-05-05 13:26 31.22268 -11.74847 37073 ft 375 kts 224°
2026-05-05 13:26 31.18100 -11.78514 37070 ft 375 kts 224°
2026-05-05 13:27 31.13934 -11.82174 37074 ft 375 kts 224°
2026-05-05 13:27 31.09765 -11.85833 37072 ft 375 kts 224°
2026-05-05 13:28 31.05597 -11.89487 37069 ft 375 kts 224°
2026-05-05 13:28 31.01424 -11.93141 37072 ft 375 kts 224°
2026-05-05 13:29 30.97254 -11.96788 37070 ft 375 kts 224°
2026-05-05 13:29 30.93085 -12.00431 37059 ft 374 kts 225°
2026-05-05 13:30 30.88919 -12.04066 37070 ft 374 kts 225°
2026-05-05 13:30 30.84760 -12.07691 37071 ft 373 kts 224°
2026-05-05 13:31 30.80601 -12.11313 37070 ft 374 kts 224°
2026-05-05 13:31 30.76439 -12.14933 37067 ft 374 kts 224°
2026-05-05 13:32 30.72276 -12.18550 37067 ft 374 kts 224°
2026-05-05 13:32 30.68114 -12.22162 37072 ft 374 kts 224°
2026-05-05 13:33 30.63950 -12.25773 37059 ft 373 kts 225°
2026-05-05 13:33 30.59787 -12.29378 37062 ft 373 kts 225°
2026-05-05 13:34 30.55621 -12.32982 37067 ft 373 kts 225°
2026-05-05 13:34 30.51455 -12.36583 37067 ft 373 kts 224°
2026-05-05 13:35 30.47282 -12.40171 37064 ft 373 kts 224°
2026-05-05 13:35 30.43112 -12.43754 37065 ft 373 kts 224°
2026-05-05 13:36 30.38949 -12.47329 37064 ft 373 kts 224°
2026-05-05 13:36 30.34784 -12.50901 37029 ft 373 kts 224°
2026-05-05 13:37 30.30613 -12.54475 37062 ft 373 kts 224°
2026-05-05 13:37 30.26042 -12.58386 37064 ft 373 kts 224°
2026-05-05 13:38 30.21868 -12.61954 37065 ft 373 kts 224°
2026-05-05 13:38 30.17693 -12.65519 37064 ft 373 kts 224°
2026-05-05 13:39 30.13518 -12.69080 37066 ft 373 kts 224°
2026-05-05 13:39 30.09563 -12.72882 37068 ft 370 kts 228°
2026-05-05 13:40 30.05653 -12.76738 37065 ft 370 kts 227°
2026-05-05 13:40 30.01758 -12.80550 37065 ft 369 kts 227°
2026-05-05 13:41 29.97840 -12.84377 37064 ft 369 kts 227°
2026-05-05 13:41 29.93920 -12.88201 37063 ft 369 kts 227°
2026-05-05 13:42 29.89998 -12.92022 37065 ft 369 kts 227°
2026-05-05 13:42 29.86075 -12.95841 37062 ft 369 kts 227°
2026-05-05 13:43 29.82149 -12.99659 37061 ft 369 kts 227°
2026-05-05 13:43 29.78222 -13.03473 37061 ft 369 kts 227°
2026-05-05 13:44 29.74959 -13.06640 37064 ft 369 kts 227°
2026-05-05 13:44 29.71027 -13.10453 37063 ft 370 kts 227°
2026-05-05 13:45 29.67085 -13.14270 37068 ft 370 kts 227°
2026-05-05 13:45 29.63148 -13.18079 37062 ft 370 kts 227°
2026-05-05 13:46 29.59211 -13.21884 37062 ft 370 kts 227°
2026-05-05 13:46 29.55272 -13.25687 37061 ft 370 kts 227°
2026-05-05 13:47 29.51330 -13.29489 37061 ft 370 kts 227°
2026-05-05 13:47 29.47387 -13.33287 37056 ft 370 kts 227°
2026-05-05 13:48 29.43445 -13.37081 37024 ft 370 kts 227°
2026-05-05 13:48 29.39493 -13.40880 37061 ft 371 kts 226°
2026-05-05 13:49 29.35537 -13.44679 37056 ft 371 kts 226°
2026-05-05 13:49 29.31580 -13.48475 37056 ft 371 kts 226°
2026-05-05 13:50 29.27620 -13.52270 37069 ft 371 kts 226°
2026-05-05 13:50 29.23662 -13.56059 37052 ft 371 kts 226°
2026-05-05 13:51 29.19700 -13.59848 37052 ft 371 kts 226°
2026-05-05 13:51 29.15738 -13.63633 37050 ft 371 kts 226°
2026-05-05 13:52 29.11774 -13.67416 37012 ft 371 kts 226°
2026-05-05 13:52 29.07799 -13.71206 37048 ft 373 kts 226°
2026-05-05 13:53 29.03817 -13.74998 37049 ft 372 kts 226°
2026-05-05 13:53 28.99839 -13.78782 37050 ft 372 kts 226°
2026-05-05 13:54 28.95858 -13.82567 37045 ft 372 kts 226°
2026-05-05 13:54 28.91873 -13.86349 37052 ft 372 kts 226°
2026-05-05 13:55 28.87918 -13.90101 37051 ft 372 kts 226°
2026-05-05 13:55 28.83933 -13.93876 37047 ft 372 kts 226°
2026-05-05 13:56 28.79946 -13.97649 37009 ft 373 kts 226°
2026-05-05 13:56 28.75949 -14.01429 37036 ft 373 kts 226°
2026-05-05 13:57 28.73979 -14.03289 36515 ft 365 kts 226°
2026-05-05 13:57 28.72035 -14.05125 35865 ft 363 kts 225°
2026-05-05 13:57 28.70057 -14.06991 35070 ft 366 kts 225°
2026-05-05 13:57 28.68095 -14.08842 34339 ft 367 kts 225°
2026-05-05 13:58 28.66125 -14.10701 33549 ft 368 kts 225°
2026-05-05 13:58 28.64171 -14.12542 32673 ft 371 kts 225°
2026-05-05 13:58 28.62144 -14.14452 31729 ft 376 kts 224°
2026-05-05 13:58 28.60118 -14.16359 30758 ft 381 kts 224°
2026-05-05 13:59 28.55982 -14.20250 28671 ft 390 kts 224°
2026-05-05 13:59 28.53877 -14.22228 27628 ft 394 kts 224°
2026-05-05 14:00 28.49625 -14.26221 25609 ft 399 kts 224°
2026-05-05 14:00 28.47479 -14.28235 24706 ft 400 kts 223°
2026-05-05 14:00 28.45362 -14.30221 24261 ft 390 kts 223°
2026-05-05 14:00 28.43307 -14.32147 23999 ft 376 kts 223°
2026-05-05 14:01 28.41321 -14.34008 23743 ft 363 kts 223°
2026-05-05 14:01 28.39360 -14.35845 23464 ft 372 kts 223°
2026-05-05 14:01 28.37331 -14.37744 23134 ft 381 kts 223°
2026-05-05 14:01 28.35274 -14.39668 22828 ft 385 kts 223°
2026-05-05 14:02 28.33204 -14.41604 22529 ft 385 kts 223°
2026-05-05 14:02 28.31137 -14.43535 22235 ft 384 kts 223°
2026-05-05 14:02 28.29075 -14.45461 21946 ft 383 kts 223°
2026-05-05 14:02 28.27019 -14.47381 21654 ft 382 kts 223°
2026-05-05 14:03 28.24972 -14.49291 21209 ft 380 kts 223°
2026-05-05 14:03 28.22939 -14.51187 20612 ft 377 kts 223°
2026-05-05 14:03 28.20921 -14.53068 20021 ft 374 kts 223°
2026-05-05 14:03 28.18918 -14.54934 19442 ft 372 kts 223°
2026-05-05 14:04 28.16925 -14.56790 18840 ft 370 kts 223°
2026-05-05 14:04 28.14941 -14.58637 18277 ft 369 kts 223°
2026-05-05 14:04 28.12960 -14.60480 17637 ft 367 kts 223°
2026-05-05 14:04 28.10992 -14.62310 17051 ft 365 kts 223°
2026-05-05 14:05 28.09033 -14.64131 16476 ft 363 kts 223°
2026-05-05 14:05 28.07085 -14.65940 15923 ft 361 kts 223°
2026-05-05 14:05 28.05146 -14.67740 15375 ft 360 kts 223°
2026-05-05 14:05 28.03217 -14.69531 14822 ft 358 kts 223°
2026-05-05 14:06 28.01297 -14.71312 14315 ft 356 kts 223°
2026-05-05 14:06 27.99382 -14.73087 13781 ft 355 kts 223°
2026-05-05 14:06 27.97481 -14.74848 13181 ft 353 kts 223°
2026-05-05 14:06 27.95578 -14.76610 12651 ft 353 kts 222°
2026-05-05 14:07 27.93687 -14.78361 12302 ft 348 kts 222°
2026-05-05 14:07 27.91848 -14.80063 12127 ft 335 kts 222°
2026-05-05 14:07 27.90095 -14.81684 11948 ft 324 kts 222°
2026-05-05 14:07 27.88354 -14.83294 11733 ft 314 kts 222°
2026-05-05 14:08 27.86708 -14.84815 11543 ft 305 kts 222°
2026-05-05 14:08 27.85092 -14.86308 11369 ft 295 kts 222°
2026-05-05 14:08 27.83530 -14.87751 11220 ft 285 kts 222°
2026-05-05 14:08 27.82023 -14.89142 11086 ft 275 kts 222°
2026-05-05 14:09 27.80567 -14.90486 10957 ft 266 kts 222°
2026-05-05 14:09 27.79159 -14.91785 10833 ft 257 kts 222°
2026-05-05 14:09 27.77797 -14.93040 10703 ft 248 kts 222°
2026-05-05 14:09 27.76485 -14.94250 10594 ft 239 kts 222°
2026-05-05 14:10 27.75218 -14.95417 10467 ft 230 kts 222°
2026-05-05 14:10 27.74001 -14.96539 10355 ft 221 kts 222°
2026-05-05 14:10 27.72832 -14.97616 10243 ft 214 kts 222°
2026-05-05 14:10 27.71668 -14.98688 10178 ft 221 kts 222°
2026-05-05 14:11 27.70458 -14.99808 10107 ft 228 kts 224°
2026-05-05 14:11 27.69519 -15.01237 9878 ft 229 kts 244°
2026-05-05 14:11 27.68798 -15.02850 9572 ft 231 kts 243°
2026-05-05 14:11 27.68066 -15.04479 9256 ft 234 kts 243°
2026-05-05 14:12 27.67336 -15.06120 8949 ft 235 kts 243°
2026-05-05 14:12 27.66607 -15.07768 8633 ft 234 kts 243°
2026-05-05 14:12 27.65885 -15.09411 8334 ft 234 kts 243°
2026-05-05 14:12 27.65166 -15.11053 8028 ft 233 kts 244°
2026-05-05 14:13 27.64447 -15.12693 7733 ft 233 kts 244°
2026-05-05 14:13 27.63858 -15.14388 7418 ft 233 kts 261°
2026-05-05 14:13 27.63997 -15.16204 7108 ft 236 kts 286°
2026-05-05 14:13 27.64552 -15.17940 6849 ft 234 kts 288°
2026-05-05 14:14 27.65120 -15.19655 6576 ft 233 kts 289°
2026-05-05 14:14 27.65698 -15.21362 6284 ft 233 kts 290°
2026-05-05 14:14 27.66281 -15.23061 5999 ft 232 kts 290°
2026-05-05 14:14 27.66867 -15.24754 5705 ft 231 kts 291°
2026-05-05 14:15 27.67454 -15.26440 5420 ft 231 kts 291°
2026-05-05 14:15 27.68041 -15.28123 5132 ft 230 kts 291°
2026-05-05 14:15 27.68628 -15.29801 4867 ft 229 kts 291°
2026-05-05 14:15 27.69212 -15.31472 4581 ft 229 kts 292°
2026-05-05 14:16 27.69794 -15.33140 4305 ft 228 kts 292°
2026-05-05 14:16 27.70374 -15.34797 4092 ft 225 kts 292°
2026-05-05 14:16 27.70939 -15.36415 3910 ft 220 kts 293°
2026-05-05 14:16 27.71497 -15.38015 3653 ft 219 kts 293°
2026-05-05 14:17 27.72053 -15.39607 3428 ft 216 kts 294°
2026-05-05 14:17 27.72607 -15.41193 3306 ft 220 kts 294°
2026-05-05 14:17 27.73366 -15.42663 3184 ft 215 kts 321°
2026-05-05 14:17 27.74578 -15.43514 3315 ft 191 kts 335°
2026-05-05 14:18 27.75744 -15.44179 3296 ft 184 kts 337°
2026-05-05 14:18 27.76893 -15.44816 2977 ft 184 kts 339°
2026-05-05 14:18 27.78118 -15.45020 2760 ft 174 kts
2026-05-05 14:18 27.79274 -15.44788 2599 ft 168 kts 16°
2026-05-05 14:19 27.80371 -15.44339 2468 ft 168 kts 21°
2026-05-05 14:19 27.81458 -15.43858 2268 ft 167 kts 21°
2026-05-05 14:19 27.82525 -15.43381 2038 ft 163 kts 21°
2026-05-05 14:19 27.83572 -15.42917 1881 ft 161 kts 21°
2026-05-05 14:20 27.84553 -15.42483 1697 ft 142 kts 21°
2026-05-05 14:20 27.85438 -15.42090 1467 ft 134 kts 22°
2026-05-05 14:20 27.86332 -15.41685 1220 ft 144 kts 21°
2026-05-05 14:20 27.87295 -15.41256 1068 ft 149 kts 20°
2026-05-05 14:21 27.88267 -15.40846 850 ft 151 kts 23°
2026-05-05 14:21 27.89226 -15.40418 729 ft 146 kts 25°
2026-05-05 14:21 27.90153 -15.40000 505 ft 143 kts 24°
2026-05-05 14:21 27.91087 -15.39591 318 ft 148 kts 25°
2026-05-05 14:22 27.92025 -15.39180 124 ft 140 kts 25°
2026-05-05 14:22 27.92859 -15.38804 62 ft 115 kts 25°
2026-05-05 14:22 27.93426 -15.38554 59 ft 73 kts 21°
2026-05-05 14:22 27.93781 -15.38418 64 ft 44 kts
2026-05-05 14:23 27.94004 -15.38461 74 ft 20 kts 321°
2026-05-05 14:23 27.93992 -15.38529 76 ft 6 kts 203°
2026-05-05 14:23 27.93935 -15.38528 79 ft 14 kts 178°
2026-05-05 14:23 27.93863 -15.38580 84 ft 10 kts 274°
2026-05-05 14:24 27.93890 -15.38652 87 ft 16 kts 296°
2026-05-05 14:24 27.93935 -15.38771 88 ft 8 kts 290°
2026-05-05 14:24 27.93937 -15.38778 87 ft 0 kts 293°